Showing default

OPS 9333 (IDSCS 18), 2864

Orbit data source: Space-Track

OPS 9333 (IDSCS 18), 2864 is a payload satellite owned by SAMSO (US) in GEO that was launched on Sat, 01 Jul 1967 UTC via a TITAN IIIC launch vehicle from the Air Force Eastern Test Range (AFETR). Payload-class satellites include a variety of spacecraft equipped with specific instruments for various scientific and technological missions. These include communications satellites like Starlink; space stations such as the ISS; scientific satellites like the Hubble; Earth observation satellites from companies like Planet Labs, Umbra, and HawkEye 360; GPS; miniature CubeSats for education and research; and military/defense satellites.

Loading next visibility...
Identifier
2864, 1967-066C
Orbit
GEO
Country
Flag of USUS
Related business
Manufacturer
Philco-Ford WDL
Mission
Non-operational spacecraft
Bus & Motor
IDCSP, Unknown motor
Mass
45 kg wet, 45 kg dry
Launch date (UTC)
1967-07-01 (58 years ago)
Launch vehicle
TITAN IIIC
Launch site
Air Force Eastern Test Range (AFETR)
Object type
Payload
Rocket body
Debris
Shape & HBR
Unknown
Radar Cross Section
Medium (>0.1 m² and <1 m²)

Expand to show TLE details & history
Last TLE update: 8 hours ago

TLE from 8 hours ago
0 OPS 9333 (IDSCS 18)
1 02864U 67066C   25343.29534134 -.00000103  00000-0  00000-0 0  9998
2 02864   2.3501 101.6594 0059095 224.1815 103.7338  1.09786188129454
Epoch: 2025-12-09T07:05Z
TLE epoch observation values (Epoch: 2025-12-09T07:05:17.491Z)
Latitude
-1.2066°
Longitude
-114.35574°
Altitude
33,371.033 km
Speed
3.164 km/s
True Right ascension
04h 40m 59s
True Declination
-1° 12' 19"
Sunlit
Object was in daylight at epoch
Visualization orbit readout
Latitude
Unknown
Longitude
Unknown
Altitude
Unknown
Speed
Unknown
Apparent Right ascension
Unknown
Apparent Declination
Unknown
Sunlit
N/A
Visualization observer readout
Local Sidereal Time
13:00:35
Azimuth
Unknown
Elevation
Unknown
Doppler factor
Unknown
Orbital elements
Apogee altitude
33,549.596 km
Perigee altitude
33,080.463 km
Semi-major axis
39,693.167 km
Eccentricity
0.00591
Inclination
2.3501°
RAAN
101.6594°
Arg. of periapsis
224.1815°
True anomaly
104.39045°
Mean anomaly
103.7338°
Eccentric anomaly
104.06224°
Mean motion
0.27445 °/min
Orbital period
1,311.7 mins
BSTAR
0
Loading maneuver chart data...
Computing Atmospheric mass density...
Loading historical data...
Loading historical data...
Loading historical data...
Loading historical data...
Loading historical data...
Loading historical data...
Loading historical data...

Documentation

Showing up to 5 results
|